Change the Weather History Date:

Sunday, March 17, 2013

  Actual Average Record
Temperature  
Mean Temperature 74 °F 62 °F  
Max Temperature 83 °F 72 °F 87 °F (1972)
Min Temperature 65 °F 51 °F 32 °F (1913)
Degree Days  
Heating Degree Days 0 5  
Month to date heating degree days 120 115  
Since 1 July heating degree days 1179 1502  
Cooling Degree Days 9 2  
Month to date cooling degree days 21 25  
Year to date cooling degree days 56 53  
Growing Degree Days 23 (Base 50)    
Moisture  
Dew Point 62 °F    
Average Humidity 70    
Maximum Humidity 93    
Minimum Humidity 47    
Precipitation  
Precipitation 0.00 in 0.11 in 1.48 in (1987)
Month to date precipitation 1.30 1.74  
Year to date precipitation 7.46 7.83  
Sea Level Pressure  
Sea Level Pressure 29.77 in    
Wind  
Wind Speed 11 mph (South)    
Max Wind Speed 20 mph    
Max Gust Speed 24 mph    
Visibility 10 miles    
Events      
T = Trace of Precipitation, MM = Missing Value Source: NWS Daily Summary

Daily Weather History Graph

Daily Weather History Graph

Search for Another Location

Airport or City:

Trip Planner

Search our weather history database for the weather conditions in past years. The results will help you decide how hot, cold, wet, or windy it might be!

Date:

Astronomy

Mar. 17, 2013 Rise Set
Actual Time 7:32 AM CDT 7:35 PM CDT
Civil Twilight 7:08 AM CDT 7:59 PM CDT
Nautical Twilight 6:40 AM CDT 8:27 PM CDT
Astronomical Twilight 6:12 AM CDT 8:55 PM CDT
Moon 11:08 AM CDT (3/17) 12:22 AM CDT (3/17)
Length of Visible Light 12h 50m
Length of Day
12h 02m
Waxing Crescent, 31% of the Moon is Illuminated
Mar 17
Waxing Crescent
Mar 19
First Quarter
Mar 27
Full
Apr 2
Last Quarter
Apr 10
New

Hourly Weather History & Observations

Time (CDT) Temp. Heat Index Dew Point Humidity Pressure Visibility Wind Dir Wind Speed Gust Speed Precip Events Conditions
12:53 AM 66.9 °F - 60.1 °F 79% 29.82 in 10.0 mi South 18.4 mph 24.2 mph N/A   Overcast
1:53 AM 66.9 °F - 60.1 °F 79% 29.81 in 10.0 mi South 15.0 mph - N/A   Overcast
2:53 AM 66.0 °F - 60.1 °F 81% 29.80 in 10.0 mi South 12.7 mph - N/A   Overcast
3:48 AM 64.4 °F - 60.8 °F 88% 29.80 in 10.0 mi South 11.5 mph - N/A   Overcast
3:53 AM 64.9 °F - 60.1 °F 84% 29.78 in 10.0 mi South 11.5 mph - N/A   Overcast
4:53 AM 64.9 °F - 61.0 °F 87% 29.79 in 10.0 mi South 9.2 mph - N/A   Overcast
5:53 AM 64.9 °F - 61.0 °F 87% 29.78 in 10.0 mi South 8.1 mph - N/A   Overcast
6:18 AM 64.4 °F - 62.6 °F 94% 29.80 in 10.0 mi South 10.4 mph - N/A   Overcast
6:53 AM 64.9 °F - 62.1 °F 90% 29.79 in 10.0 mi SSE 9.2 mph - N/A   Overcast
7:01 AM 64.4 °F - 62.6 °F 94% 29.80 in 10.0 mi SSE 8.1 mph - N/A   Overcast
7:30 AM 64.4 °F - 62.6 °F 94% 29.81 in 10.0 mi SSE 8.1 mph - N/A   Overcast
7:53 AM 64.9 °F - 62.1 °F 90% 29.79 in 10.0 mi SSE 8.1 mph - N/A   Overcast
8:53 AM 66.0 °F - 62.1 °F 87% 29.81 in 10.0 mi SSE 9.2 mph - N/A   Overcast
9:04 AM 66.2 °F - 62.6 °F 88% 29.82 in 10.0 mi SSE 10.4 mph - N/A   Overcast
9:12 AM 66.2 °F - 62.6 °F 88% 29.82 in 10.0 mi SSE 9.2 mph - N/A   Overcast
9:39 AM 66.2 °F - 62.6 °F 88% 29.83 in 10.0 mi SSE 10.4 mph - N/A   Overcast
9:53 AM 66.9 °F - 63.0 °F 87% 29.82 in 10.0 mi South 9.2 mph - N/A   Overcast
10:53 AM 69.1 °F - 63.0 °F 81% 29.83 in 10.0 mi South 11.5 mph - N/A   Overcast
11:13 AM 69.8 °F - 62.6 °F 78% 29.83 in 10.0 mi South 10.4 mph - N/A   Overcast
11:20 AM 69.8 °F - 62.6 °F 78% 29.83 in 10.0 mi South 9.2 mph - N/A   Overcast
11:48 AM 71.6 °F - 62.6 °F 73% 29.82 in 10.0 mi South 16.1 mph 21.9 mph N/A   Overcast
11:53 AM 72.0 °F - 62.1 °F 71% 29.81 in 10.0 mi South 13.8 mph 21.9 mph N/A   Overcast
12:10 PM 71.6 °F - 62.6 °F 73% 29.81 in 10.0 mi SSW 12.7 mph - N/A   Overcast
12:42 PM 73.4 °F - 62.6 °F 69% 29.81 in 10.0 mi SSW 9.2 mph - N/A   Overcast
12:53 PM 75.0 °F - 62.1 °F 64% 29.79 in 10.0 mi SSW 12.7 mph 19.6 mph N/A   Overcast
1:53 PM 78.1 °F - 61.0 °F 56% 29.75 in 10.0 mi South 15.0 mph 21.9 mph N/A   Mostly Cloudy
2:53 PM 79.0 °F - 61.0 °F 54% 29.71 in 10.0 mi South 11.5 mph - N/A   Overcast
3:53 PM 81.0 °F 81.6 °F 60.1 °F 49% 29.68 in 10.0 mi SSW 11.5 mph 17.3 mph N/A   Scattered Clouds
4:53 PM 82.0 °F 82.4 °F 60.1 °F 47% 29.67 in 10.0 mi South 8.1 mph - N/A   Mostly Cloudy
5:53 PM 82.0 °F 82.4 °F 60.1 °F 47% 29.65 in 10.0 mi South 10.4 mph - N/A   Partly Cloudy
6:53 PM 79.0 °F - 61.0 °F 54% 29.66 in 10.0 mi South 11.5 mph - N/A   Partly Cloudy
7:53 PM 77.0 °F - 62.1 °F 60% 29.68 in 10.0 mi South 11.5 mph - N/A   Scattered Clouds
8:53 PM 73.9 °F - 62.1 °F 66% 29.70 in 10.0 mi South 13.8 mph - N/A   Clear
9:53 PM 72.0 °F - 61.0 °F 68% 29.72 in 10.0 mi South 10.4 mph - N/A   Clear
10:53 PM 70.0 °F - 63.0 °F 78% 29.72 in 10.0 mi South 15.0 mph - N/A   Clear
11:53 PM 69.1 °F - 64.0 °F 84% 29.72 in 10.0 mi South 10.4 mph - N/A   Clear